Location: ??????
(55.2000°N, 38.3000°E)
Time: 00:48:45
(UTC+00:00)

Cosmos 1656 Rocket - Pass Details

Date: 15 November 2025
Orbit: 791 x 846 km, 71.1° (Epoch: 12 December)

Event Time Altitude Azimuth Distance (km) Brightness Sun altitude
Exits shadow 02:38:48 36° 291° (WNW) 1,328 4.2 -19.7°
Maximum altitude 02:40:30 46° 248° (WSW) 1,126 3.9 -19.5°
Drops below altitude 10° 02:45:53 10° 177° (S) 2,462 6.2 -18.7°
Sets 02:48:23 0° 171° (S) 3,390 7.0 -18.4°
